Location: Dob?e?
(49.9411°N, 15.1496°E)
Time: 19:06:16
(UTC+00:00)

NOAA 18 - Pass Details

Date: 25 October 2021
Orbit: 840 x 861 km, 99.0° (Epoch: 01 December)

Event Time Altitude Azimuth Distance (km) Brightness Sun altitude
Exits shadow 20:32:15 14° 341° (NNW) 2,237 7.8 -43.8°
Drops below altitude 10° 20:32:57 10° 342° (NNW) 2,510 8.1 -43.9°
Sets 20:35:22 0° 344° (NNW) 3,452 9.0 -44.2°
